HJ-1A

Last updated on Thu Apr 18 2024 00:02:30 GMT+0000 (Coordinated Universal Time)

1 33320U 08041A 24108.57734448 .00005013 00000+0 67365-3 0 9999 2 33320 97.6340 118.5938 0019709 204.7390 155.2879 14.79569730841290
UTC large
Height (km)
Speed (km/s)
/
Latitude / Longitude
Inclination (degrees)
Orbital Period (minutes)
Azimuth
Elevation
Range (km)
Doppler Factor

Next 0 passes for location: London (51.5072 / 0.1276)

Sorry there are no passes over London.
HJ-1A